Location: *
(51.8167°N, 12.5000°E)
Time: 02:13:01
(UTC+00:00)

BREEZE M DEB (TANK) - Pass Details

Date: 16 September 2019
Orbit: 281 x 14544 km, 49.5° (Epoch: 20 October)

Event Time Altitude Azimuth Distance (km) Brightness Sun altitude
Rises 17:52:25 0° 239° (WSW) 1,966 6.0 -5.3°
Reaches altitude 10° 17:54:06 10° 228° (SW) 1,124 4.5 -5.6°
Maximum altitude 17:56:01 34° 158° (SSE) 577 2.2 -5.8°
Drops below altitude 10° 17:58:57 10° 90° (E) 1,750 4.2 -6.3°
Enters shadow 17:59:46 - 87° (E) 2,160 4.7 -6.4°
